Location: Unspecified
(0.0000°N, 0.0000°E)
Time: 11:24:16
(UTC+00:00)

Explorer 11/Cluster Stage 4 - Pass Details

Date: 26 November 2019
Orbit: 467 x 1259 km, 28.8° (Epoch: 15 December)

Event Time Altitude Azimuth Distance (km) Brightness Sun altitude
Rises 00:12:18 0° 305° (NW) 3,710 - -68.3°
Reaches altitude 10° 00:14:50 10° 308° (NW) 2,864 - -68.1°
Maximum altitude 00:22:04 73° 31° (NNE) 1,230 - -67.5°
Drops below altitude 10° 00:30:17 10° 115° (ESE) 3,226 - -66.6°
Sets 00:33:17 0° 117° (ESE) 4,202 - -66.3°
